Vertical_Velocity
-6 -6 -5 -1 -3 -4 -3 -0 1 -0 -1 1 -0 -3 0 0 1 -1 1 4 9 1 1 0 2 -0 2 2 7 4 0 -1 1 1 1 0 1 -0 0 1 -0 -0 -0 -0 -0 -0 -2 -1 0 1 0 -1 0 1
-7 0 0 -4 -3 -4 -3 -3 -1 -1 -1 -1 -1 3 -2 -1 -1 1 0 -1 0 1 -2 -2 1 -1 1 4 4 -1 -2 0 1 0 1 4 1 1 1 -1 -0 1 -1 -0 -1 -0 -0 0 0 1 -0 1 0 0
0 0 -6 -6 -3 -3 -1 -0 -1 -0 0 -0 -0 3 3 3 4 0 3 3 3 1 3 -2 -1 3 15 5 -0 0 -2 1 1 -1 -2 3 -1 1 0 -0 2 1 1 1 -1 -1 0 0 0 0 0 0 1 1
-3 -5 -5 -4 -2 -5 -2 -1 -1 -1 -2 -2 -1 -1 2 -1 1 1 1 2 1 4 11 6 5 12 10 1 -1 0 -1 1 -2 0 1 2 2 0 0 1 2 -0 1 1 1 0 1 1 0 -0 0 -0 -2 -1
-4 -4 -1 -4 -3 -0 -0 -2 -1 -2 -0 -2 1 2 7 0 -1 1 0 -0 -2 4 20 2 7 6 9 2 -0 -1 -0 -1 1 18 1 1 2 1 1 2 1 0 1 0 0 -0 -1 0 0 -1 -1 0 -0 -2
-3 -3 -3 -4 -2 -1 -2 -2 -2 -1 0 -0 -6 -5 3 -1 -1 -2 -1 5 7 7 5 0 3 0 5 3 -0 -1 -2 -0 2 5 1 1 1 2 1 1 0 0 1 1 -1 -0 -1 -0 0 -0 -1 -0 1 1
-3 -0 -2 -2 -2 -2 -2 -3 1 1 2 6 -1 -2 -2 -4 -4 -1 -2 -1 2 22 7 1 0 2 0 -1 -2 -1 -1 -0 5 2 0 1 1 1 1 0 1 0 -1 -0 0 0 0 -0 1 0 1 -0 -0 2
-1 -2 -2 -1 -1 -1 -0 1 2 0 -1 4 3 3 -1 -3 -1 1 2 -1 1 13 6 1 1 0 0 0 0 0 -1 0 0 1 1 1 2 1 -1 1 1 1 0 -0 -0 -0 0 0 -1 -1 1 1 -0 0
-2 -4 -2 0 -1 -3 -1 -1 2 1 2 1 2 0 0 0 0 -1 -1 -1 -0 2 3 1 2 0 1 1 -0 -0 0 -0 1 0 -0 1 -0 -3 1 1 1 1 1 0 -0 0 -1 -1 -1 -1 -0 -0 -0 1
-2 -2 -3 -3 -3 -3 1 -1 1 -0 -0 2 0 -1 0 0 1 -0 1 0 3 -0 -4 0 2 0 1 2 3 0 1 -1 -0 -1 1 -1 -2 1 1 1 1 0 0 0 -1 -1 -0 -1 -2 -1 -0 -1 -1 -1
0 -1 -4 -3 -0 -1 -1 4 -1 -1 1 -0 -2 0 1 1 1 0 0 0 -1 -1 -1 -0 1 0 1 2 1 2 2 1 -1 0 0 -0 0 1 0 0 0 0 0 -1 -0 0 -1 -0 0 -1 -1 -1 -0 -1
0 -1 -2 -2 -1 0 -2 0 -2 -0 0 -1 -1 -0 1 0 0 0 -3 -1 -1 -2 -0 1 -0 -0 1 1 1 2 1 1 -1 1 0 -2 1 -0 -0 0 0 0 1 0 -1 -0 -0 -0 0 0 -1 -2 -1 -1
-1 -1 -5 -3 -1 -2 -2 -2 -1 -1 0 -1 -1 0 -1 -2 -4 -7 -3 -0 1 1 0 -1 -0 0 0 0 1 1 -0 -0 2 -0 -1 1 0 -0 -0 -0 -0 0 0 1 0 -0 -0 0 -0 -0 0 1 -0 -1
-3 -4 -2 0 -5 -0 -1 -3 -1 -0 1 -0 -2 -6 -7 -3 -1 0 1 0 -0 1 1 1 -0 -1 0 0 0 -0 0 1 -2 -2 -0 1 1 -0 -0 -0 -0 -0 -0 -0 -0 -0 -0 -0 0 0 -0 -1 -0 -0
1 -2 -2 -2 -1 -6 -8 -6 -1 -6 1 -6 -2 -7 -4 -0 -3 -2 -1 -0 0 1 0 0 -1 -0 0 -1 -1 0 -1 -2 -0 0 0 -0 0 1 1 0 -0 -1 -0 -1 -1 -1 -1 -1 -1 -1 0 0 -0 -1
-3 -2 2 -3 -4 -0 -0 -3 3 2 -24 -21 -8 -3 -0 4 5 4 3 2 1 0 0 -0 -0 -1 -2 -2 -1 -2 -1 -1 -1 -1 -0 0 0 0 1 1 0 0 0 -0 -0 -0 0 0 -0 -1 -1 0 0 1
-3 -1 -4 -2 0 -2 -2 8 8 -22 -25 -7 1 -1 2 1 -1 -1 1 -0 -0 -0 0 -0 -2 -2 -1 -0 -1 -1 -1 0 0 0 -0 -0 0 0 1 0 -0 -0 -0 -0 -0 -0 0 -0 -0 0 0 -1 -1 -1
-3 -0 0 -2 -1 -1 5 -1 -26 -10 -11 2 -4 1 -0 1 2 1 3 1 0 1 0 -8 1 1 -2 -2 0 2 1 0 0 1 1 1 -0 -0 -1 -0 -1 -1 -1 -1 -1 -1 -1 -1 -1 -1 -1 -0 1 -1
0 -2 -2 0 -1 4 -13 -8 -9 -16 0 -3 0 0 -1 -5 -5 -2 0 0 0 1 -6 -5 -2 -2 -0 1 1 1 0 0 1 1 1 1 1 1 1 -0 0 -0 -0 1 0 -0 -0 0 1 1 -0 -1 -0 -0
-4 -2 -1 -1 1 4 -19 -4 -12 -3 0 1 0 -1 -5 -6 -1 1 4 4 7 -8 -8 -9 -2 1 1 1 0 0 0 0 1 2 -0 -1 -0 -1 -1 0 0 1 0 1 0 1 1 1 -3 -1 -0 -1 -1 3
4 2 -3 -2 2 -10 -16 -4 -5 -4 -2 -2 2 0 -1 7 5 2 -2 1 -3 -18 -7 2 2 1 1 0 1 1 0 0 -0 -1 0 3 1 1 1 0 0 0 0 1 1 -1 -2 -1 -0 -0 0 -1 -2 -2
-5 -2 2 8 -12 -15 -8 -1 -7 -4 -2 2 -1 0 4 2 -1 -2 1 -6 -13 1 -0 2 2 2 2 2 1 1 1 0 -0 -1 -1 0 1 1 0 -0 0 -0 -2 -1 -0 -0 -0 -1 -1 0 1 1 -0 -1
-1 2 3 -9 -11 -3 -1 -0 -2 -2 -3 1 0 -3 -0 -3 -2 -2 -7 -4 -0 1 2 0 -2 -1 -0 -1 -1 -1 -0 0 0 -0 -1 -1 -0 -1 -1 -1 -1 -0 1 -1 -1 -0 0 0 -0 -1 1 0 -1 1
6 -0 -7 -8 -1 -5 -1 -0 -2 -5 -1 -2 -1 -2 -1 -1 1 -2 -0 0 3 5 2 1 4 5 2 1 2 2 1 -0 -1 -1 -1 -1 -1 -1 -1 -1 -0 -1 -0 -0 0 -1 -1 -0 -1 -0 -1 -1 -1 -2
1 -7 -2 -3 -3 -1 -2 -1 -2 -2 -2 0 -3 -2 -0 -1 -1 -2 0 2 4 3 3 3 0 0 1 1 1 -0 -0 1 2 1 1 0 1 2 2 -1 -2 0 0 0 1 1 1 0 -0 -1 -1 -1 -0 0
-3 -5 -6 0 -1 -2 -3 -2 -1 -0 0 -3 -0 -1 -1 -2 -3 -2 1 2 0 1 0 -0 -0 1 -1 -0 2 4 2 0 -1 -1 0 1 2 2 1 -1 2 6 3 1 1 2 2 0 0 0 0 1 1 1
-9 -1 0 -0 -4 -2 -3 -1 -0 -3 -2 -1 0 -2 -2 -1 1 3 5 2 -2 -1 -1 1 1 -0 -0 -0 -1 -1 -0 -0 -0 -1 -1 -1 -2 -3 -4 -3 -2 -1 -1 -1 -1 -2 0 2 2 2 2 1 -1 -0
-3 -1 -0 -1 -2 0 -2 -1 -4 -2 -1 -2 -4 -2 -2 -0 2 1 -0 1 3 1 -1 -0 0 1 1 1 0 -1 -1 -2 -2 -4 -6 -6 -3 -0 2 2 0 -0 -1 -2 -0 0 -1 -0 0 1 -1 0 1 0
-2 -2 -0 -2 0 -2 -2 -3 -2 -1 0 0 -0 -2 0 1 2 2 3 0 0 2 3 1 -1 -1 -1 1 0 1 2 3 7 6 3 3 5 6 2 3 3 3 2 3 0 -0 -0 -1 -1 0 0 1 1 1
-2 0 -2 2 -2 -5 -2 -2 -0 -0 0 -0 -1 -1 0 0 1 1 1 4 3 1 -1 -2 -0 -1 -0 -1 -2 -1 -0 0 0 -1 -2 -2 -3 -1 0 -1 0 1 1 1 2 1 0 -1 -2 -2 -2 -2 -1 -1
-3 1 0 0 -5 -2 -1 -0 -1 -1 -2 -1 -0 1 1 1 2 0 -0 -1 -1 -1 1 3 1 1 1 3 5 5 4 1 -1 -2 -4 -1 2 0 -1 0 0 1 2 2 1 1 1 0 0 0 -0 -0 -0 -0
-1 -1 1 -2 -2 -1 -0 -0 -0 -0 -0 -1 -1 0 1 2 1 1 1 1 1 2 -1 -1 1 -0 -1 -2 -2 -3 -3 -3 -1 1 6 4 0 1 2 0 1 2 1 0 1 0 0 0 1 1 1 -0 -1 -1
-2 -2 -0 -1 -1 -1 -0 -1 -0 -1 -1 -0 0 0 -1 -1 -3 -1 2 1 0 -0 0 0 -0 -0 0 0 0 0 -1 -1 -1 -1 -1 -0 0 1 2 3 1 -0 -1 1 -0 -1 -1 -0 0 1 1 1 1 0
Height
3085 3080 3074 3067 3060 3053 3046 3040 3034 3028 3022 3018 3013 3008 3004 2998 2994 2991 2988 2986 2985 2980 2978 2976 2975 2974 2972 2971 2971 2972 2974 2972 2972 2973 2974 2973 2972 2972 2972 2972 2972 2974 2974 2974 2974 2975 2977 2976 2976 2978 2977 2975 2974 2972
3081 3075 3068 3060 3052 3046 3039 3033 3027 3021 3016 3010 3006 3000 2994 2990 2987 2983 2981 2978 2976 2974 2973 2971 2970 2969 2967 2967 2968 2968 2970 2969 2969 2970 2971 2971 2971 2971 2971 2972 2973 2974 2974 2974 2976 2975 2975 2975 2975 2975 2975 2975 2974 2973
3074 3068 3061 3053 3046 3039 3032 3026 3020 3014 3009 3003 2997 2992 2987 2983 2980 2977 2974 2971 2970 2968 2968 2966 2965 2965 2965 2965 2965 2967 2967 2966 2967 2968 2969 2969 2970 2970 2970 2970 2971 2972 2972 2973 2975 2975 2974 2974 2974 2974 2973 2973 2973 2972
3068 3061 3054 3047 3040 3033 3026 3020 3014 3008 3001 2995 2990 2986 2981 2978 2974 2970 2968 2966 2965 2964 2964 2962 2963 2963 2962 2963 2963 2964 2965 2965 2966 2966 2967 2967 2968 2968 2968 2969 2970 2972 2972 2972 2973 2974 2974 2974 2973 2973 2973 2972 2972 2972
3061 3055 3048 3040 3034 3027 3020 3014 3007 3001 2995 2989 2985 2981 2976 2971 2968 2965 2963 2961 2960 2963 2960 2958 2959 2960 2960 2960 2962 2962 2962 2962 2963 2963 2964 2965 2965 2967 2967 2968 2969 2970 2971 2972 2972 2973 2973 2973 2972 2972 2971 2971 2971 2970
3056 3049 3042 3034 3028 3021 3014 3008 3001 2995 2990 2985 2979 2975 2972 2967 2963 2961 2960 2961 2960 2959 2959 2958 2959 2958 2958 2959 2960 2960 2960 2960 2961 2961 2962 2963 2964 2966 2966 2967 2968 2969 2970 2970 2971 2971 2971 2971 2971 2970 2970 2969 2969 2969
3050 3043 3036 3028 3021 3015 3008 3002 2996 2991 2986 2980 2974 2968 2965 2963 2960 2959 2959 2958 2957 2956 2956 2956 2957 2957 2958 2958 2959 2959 2960 2960 2960 2960 2961 2962 2963 2965 2965 2967 2968 2969 2969 2970 2970 2970 2969 2969 2969 2969 2968 2967 2967 2966
3043 3036 3029 3022 3015 3009 3003 2996 2991 2986 2982 2976 2971 2967 2962 2960 2958 2957 2956 2955 2954 2955 2954 2954 2955 2958 2958 2958 2959 2959 2959 2959 2959 2960 2961 2962 2964 2964 2966 2968 2968 2968 2969 2969 2969 2968 2968 2968 2968 2967 2967 2966 2965 2965
3037 3030 3023 3016 3010 3004 2998 2992 2987 2981 2976 2971 2967 2964 2962 2959 2957 2956 2954 2953 2952 2955 2952 2953 2954 2956 2957 2957 2958 2959 2958 2959 2960 2960 2961 2964 2963 2965 2968 2968 2968 2968 2969 2968 2968 2967 2967 2967 2966 2966 2965 2965 2964 2963
3031 3023 3018 3012 3006 3000 2994 2988 2982 2976 2971 2967 2963 2962 2959 2958 2956 2956 2954 2954 2953 2952 2952 2954 2955 2956 2958 2957 2957 2959 2959 2959 2960 2963 2963 2963 2966 2969 2968 2968 2968 2968 2968 2968 2967 2967 2966 2966 2965 2964 2963 2963 2962 2962
3024 3018 3013 3007 3000 2995 2989 2984 2977 2972 2968 2964 2961 2960 2958 2957 2956 2955 2954 2954 2954 2955 2956 2956 2956 2956 2957 2957 2957 2958 2959 2959 2961 2964 2964 2965 2968 2969 2968 2968 2968 2967 2967 2966 2966 2965 2964 2964 2963 2962 2961 2961 2960 2959
3020 3014 3008 3002 2996 2991 2985 2980 2974 2969 2964 2962 2961 2959 2958 2957 2956 2957 2956 2958 2957 2958 2959 2957 2957 2957 2957 2957 2958 2959 2959 2961 2962 2964 2964 2967 2970 2969 2968 2968 2967 2966 2966 2965 2964 2963 2962 2962 2961 2961 2959 2958 2958 2957
3017 3010 3004 2999 2993 2988 2982 2976 2971 2966 2963 2961 2960 2959 2958 2960 2959 2960 2962 2961 2961 2961 2959 2958 2957 2957 2957 2958 2958 2959 2960 2961 2964 2964 2967 2970 2969 2968 2968 2967 2966 2965 2964 2963 2962 2961 2960 2959 2958 2958 2957 2956 2955 2955
3013 3008 3002 2995 2990 2985 2980 2974 2969 2965 2962 2961 2961 2962 2964 2967 2969 2967 2965 2963 2962 2961 2960 2959 2958 2958 2958 2959 2959 2960 2962 2964 2964 2967 2970 2969 2968 2967 2966 2965 2965 2964 2962 2961 2960 2959 2958 2957 2956 2955 2954 2954 2953 2952
3010 3005 3000 2994 2989 2983 2977 2973 2968 2965 2962 2962 2967 2971 2974 2973 2971 2968 2966 2964 2963 2961 2960 2959 2959 2960 2960 2960 2961 2963 2964 2966 2968 2970 2970 2969 2968 2967 2966 2964 2963 2962 2961 2960 2959 2957 2956 2955 2953 2952 2951 2951 2950 2949
3008 3003 2999 2993 2988 2984 2979 2974 2972 2969 2964 2969 2975 2980 2979 2977 2975 2971 2969 2966 2964 2962 2962 2961 2961 2962 2962 2963 2964 2965 2968 2970 2971 2970 2969 2968 2967 2966 2965 2963 2962 2960 2959 2958 2957 2955 2954 2953 2951 2950 2949 2948 2947 2946
3007 3003 2997 2993 2989 2985 2981 2980 2976 2969 2973 2980 2983 2983 2983 2980 2977 2974 2972 2969 2967 2965 2963 2963 2964 2965 2967 2967 2969 2970 2971 2971 2970 2970 2968 2967 2966 2965 2963 2962 2960 2958 2957 2955 2954 2952 2951 2950 2948 2947 2946 2944 2943 2942
3006 3002 2998 2994 2990 2989 2987 2983 2977 2981 2983 2988 2988 2988 2987 2985 2982 2980 2976 2974 2972 2970 2968 2967 2969 2969 2971 2973 2974 2974 2973 2971 2970 2969 2967 2966 2964 2963 2961 2960 2958 2956 2954 2953 2951 2949 2948 2946 2945 2943 2942 2940 2939 2937
3006 3002 2999 2996 2994 2993 2989 2989 2989 2987 2992 2994 2994 2993 2991 2989 2986 2984 2982 2980 2978 2975 2973 2973 2976 2976 2977 2977 2976 2975 2973 2972 2970 2968 2967 2965 2963 2962 2960 2958 2956 2954 2952 2950 2949 2947 2945 2943 2942 2940 2938 2936 2935 2933
3005 3003 3000 2998 2997 2996 2993 2997 2997 2997 2999 3001 3000 2998 2996 2994 2993 2991 2989 2987 2984 2980 2979 2979 2981 2981 2980 2979 2977 2976 2974 2972 2970 2968 2966 2964 2962 2960 2958 2956 2954 2952 2950 2948 2946 2944 2943 2941 2938 2936 2934 2932 2930 2929
3008 3005 3003 3002 3001 2999 2999 3002 3003 3005 3005 3005 3005 3004 3002 3001 2999 2997 2994 2991 2988 2984 2985 2986 2985 2984 2982 2980 2978 2976 2974 2972 2969 2967 2965 2963 2961 2959 2957 2955 2952 2950 2948 2946 2944 2942 2939 2937 2935 2933 2931 2929 2926 2924
3009 3008 3008 3008 3005 3004 3007 3009 3010 3010 3011 3011 3010 3008 3008 3006 3004 3001 2999 2996 2992 2993 2992 2990 2989 2987 2984 2982 2979 2977 2975 2972 2969 2967 2964 2962 2960 2958 2956 2953 2951 2948 2945 2943 2941 2939 2936 2934 2932 2930 2927 2925 2922 2919
3014 3014 3013 3011 3011 3013 3017 3016 3016 3015 3016 3016 3015 3013 3012 3010 3008 3007 3003 3001 3000 2998 2996 2994 2991 2988 2986 2983 2980 2978 2975 2972 2970 2967 2964 2962 2960 2957 2954 2952 2949 2947 2944 2941 2938 2936 2934 2931 2928 2926 2923 2920 2917 2914
3018 3016 3015 3017 3018 3020 3021 3021 3021 3020 3020 3020 3019 3018 3017 3015 3014 3011 3008 3006 3004 3002 2999 2996 2993 2990 2987 2984 2981 2979 2976 2973 2970 2967 2965 2962 2959 2957 2954 2951 2948 2946 2943 2940 2937 2934 2931 2928 2925 2922 2919 2917 2913 2910
3023 3023 3025 3025 3025 3026 3025 3026 3026 3026 3025 3025 3023 3022 3021 3019 3017 3014 3012 3010 3008 3004 3001 2998 2994 2991 2988 2985 2982 2979 2977 2974 2971 2968 2966 2963 2960 2957 2954 2951 2947 2944 2941 2938 2936 2932 2929 2926 2923 2919 2916 2913 2909 2906
3023 3028 3030 3030 3030 3031 3030 3031 3031 3031 3030 3028 3027 3026 3024 3022 3021 3019 3016 3013 3010 3006 3003 2999 2996 2993 2990 2986 2984 2981 2978 2975 2971 2969 2966 2963 2960 2957 2954 2950 2947 2944 2941 2937 2934 2931 2927 2924 2920 2917 2914 2910 2907 2903
3030 3033 3034 3034 3035 3036 3036 3036 3036 3035 3034 3033 3031 3029 3027 3026 3025 3024 3020 3016 3012 3008 3004 3001 2998 2994 2991 2988 2985 2982 2979 2975 2972 2969 2966 2963 2959 2955 2952 2948 2945 2942 2938 2935 2931 2928 2925 2922 2919 2915 2911 2908 2904 2901
3036 3038 3040 3041 3041 3041 3041 3040 3039 3039 3038 3037 3035 3033 3032 3031 3029 3026 3022 3018 3015 3010 3007 3003 3000 2997 2993 2990 2986 2983 2979 2976 2972 2969 2965 2962 2958 2955 2952 2948 2944 2939 2935 2931 2928 2925 2921 2918 2915 2912 2909 2906 2902 2899
3043 3044 3045 3045 3046 3046 3045 3045 3044 3043 3042 3040 3038 3036 3035 3033 3031 3028 3025 3021 3017 3014 3010 3006 3002 2998 2995 2992 2989 2986 2982 2979 2977 2973 2970 2966 2962 2958 2952 2948 2943 2938 2933 2929 2924 2920 2917 2914 2911 2908 2906 2904 2901 2898
3049 3050 3050 3051 3051 3050 3051 3050 3049 3047 3046 3044 3042 3040 3038 3035 3033 3030 3026 3024 3020 3016 3012 3009 3005 3002 2998 2995 2991 2988 2985 2981 2978 2974 2970 2965 2960 2956 2951 2946 2941 2936 2931 2926 2922 2918 2913 2910 2907 2904 2902 2900 2898 2897
3054 3055 3056 3055 3055 3055 3055 3054 3053 3051 3050 3047 3045 3043 3040 3038 3035 3032 3028 3025 3022 3018 3015 3012 3009 3006 3002 2999 2996 2993 2989 2984 2979 2975 2970 2965 2961 2956 2951 2946 2941 2936 2931 2926 2921 2917 2913 2909 2906 2903 2900 2898 2896 2894
3060 3060 3061 3060 3060 3060 3059 3058 3057 3055 3054 3051 3048 3046 3043 3041 3038 3035 3032 3029 3026 3022 3019 3015 3012 3009 3005 3002 2998 2994 2990 2986 2982 2978 2974 2969 2964 2958 2953 2948 2942 2937 2932 2926 2922 2917 2913 2909 2906 2902 2899 2897 2894 2893
3064 3065 3065 3064 3064 3063 3062 3062 3060 3059 3057 3055 3052 3049 3046 3043 3040 3037 3035 3032 3029 3025 3022 3019 3016 3012 3009 3005 3001 2997 2993 2989 2984 2980 2975 2970 2966 2961 2956 2951 2945 2939 2934 2929 2924 2919 2915 2911 2907 2903 2900 2897 2894 2892